Regional Weather Roundup
Issued by NWS Little Rock, AR

Home | Current Version | Previous Version | Text Only | Print | Product List | Glossary Off
Versions: 1 2 3 4 5 6 7 8 9 10 11 12 13 14 15 16 17 18 19 20 21 22 23 24 25 26 27 28 29 30 31 32 33 34 35 36 37 38 39 40 41 42 43 44 45 46 47 48 49 50

000
ASUS44 KLZK 290305
RWRLZK

WEATHER ROUNDUP FOR ARKANSAS
NATIONAL WEATHER SERVICE LITTLE ROCK AR
1000 PM CDT MON JUL 28 2014

NOTE: "FAIR" INDICATES FEW OR NO CLOUDS BELOW 12,000 FEET WITH NO
SIGNIFICANT WEATHER AND/OR OBSTRUCTIONS TO VISIBILITY.

ARZ001-003-010-029-290400-
NORTHWEST ARKANSAS

CITY           SKY/WX    TMP DP  RH WIND       PRES   REMARKS
FAYETTEVILLE   CLEAR     68  58  70 N5        30.15R
FORT SMITH     PTCLDY    79  61  53 NW3       30.10R
HARRISON       CLEAR     71  57  61 CALM      30.15R
BENTONVILLE    CLEAR     73  55  53 NE5       30.16R
ROGERS         CLEAR     69  57  65 NE6       30.17R
SILOAM SPGS    CLEAR     72  55  56 NE5       30.16R
HIGHFILL       CLEAR     70  59  68 N3        30.15R
$$

ARZ004-005-016-290400-
NORTH CENTRAL ARKANSAS

CITY           SKY/WX    TMP DP  RH WIND       PRES   REMARKS
BATESVILLE     CLEAR     72  63  73 W5        30.09R
FLIPPIN        CLEAR     73  57  56 NW3       30.12R
MTN HOME       CLEAR     70  57  63 N3        30.11R
$$

ARZ040-041-290400-
WEST CENTRAL ARKANSAS

CITY           SKY/WX    TMP DP  RH WIND       PRES   REMARKS
MENA           CLEAR     70  66  88 CALM      30.13R
MOUNT IDA      PTCLDY    70  68  93 CALM      30.09R
$$

ARZ009-017-025-026-028-290400-
NORTHEAST ARKANSAS

CITY           SKY/WX    TMP DP  RH WIND       PRES   REMARKS
CORNING        CLOUDY    73  64  73 NE6       30.09R
JONESBORO      CLOUDY    74  65  73 N6        30.06R
NEWPORT        PTCLDY    78  65  64 NW3       30.08R
WALNUT RIDGE   PTCLDY    75  64  69 N5        30.08R
BLYTHEVILLE    MOCLDY    73  67  81 NE6       30.07R
$$

ARZ022-023-033-042-044-290400-
CENTRAL ARKANSAS

CITY           SKY/WX    TMP DP  RH WIND       PRES   REMARKS
LITTLE ROCK    PTCLDY    76  63  64 CALM      30.08R
N LITTLE ROCK  PTCLDY    73  65  75 N3        30.08R
JACKSONVILLE   CLEAR     72  67  87 NE1       30.08R
SEARCY         CLEAR     72  67  84 W3        30.09R
HOT SPRINGS    PTCLDY    74  68  81 CALM      30.10R
RUSSELLVILLE   CLEAR     71  67  87 CALM      30.09R
CLINTON        FAIR      72  66  83 CALM      30.11R
$$

ARZ036-290400-
EAST ARKANSAS

CITY           SKY/WX    TMP DP  RH WIND       PRES   REMARKS
WEST MEMPHIS   PTCLDY    72  68  87 CALM      30.05R
$$

ARZ050-053-066-070-073-290400-
SOUTHWEST ARKANSAS

CITY           SKY/WX    TMP DP  RH WIND       PRES   REMARKS
ARKADELPHIA    FAIR      74  72  93 CALM      30.07F
CAMDEN         PTCLDY    72  68  88 CALM      30.07R
TEXARKANA      CLEAR     74  68  81 CALM      30.08R
EL DORADO      PTCLDY    74  70  87 CALM      30.07R
DE QUEEN       CLEAR     71  68  90 N3        30.08R
$$

ARZ056-057-069-290400-
SOUTHEAST ARKANSAS

CITY           SKY/WX    TMP DP  RH WIND       PRES   REMARKS
PINE BLUFF     PTCLDY    75  66  73 CALM      30.08R
STUTTGART      CLEAR     75  64  69 W5        30.08S
MONTICELLO     PTCLDY    74  68  81 CALM      30.07S

$$




USA.gov is the U.S. government's official web portal to all federal, state and local government web resources and services.